Angleton, TX

11:51 PM CST on January 20, 2017 (GMT -0600)
Angleton

Weather History for KLBX - October, 2012

Change the Weather History Date:

Friday, October 26, 2012

  Actual Average Record
Temperature  
Mean Temperature 62 °F -  
Max Temperature 69 °F 76 °F 89 °F (2010)
Min Temperature 55 °F 59 °F 37 °F (2005)
Degree Days  
Heating Degree Days 3    
Growing Degree Days 12 (Base 50)    
Moisture  
Dew Point 61 °F    
Average Humidity 89    
Maximum Humidity 100    
Minimum Humidity 65    
Precipitation  
Precipitation 0.00 in - - ()
Sea Level Pressure  
Sea Level Pressure 29.98 in    
Wind  
Wind Speed 4 mph (NNW)    
Max Wind Speed 23 mph    
Max Gust Speed 29 mph    
Visibility 6 miles    
Events Fog    
Averages and records for this station are not official NWS values.
T = Trace of Precipitation, MM = Missing Value Source: NWS Daily Summary

Daily Weather History Graph

Daily Weather History Graph

Search for Another Location

Airport or City:

Trip Planner

Search our weather history database for the weather conditions in past years. The results will help you decide how hot, cold, wet, or windy it might be!

Date:

Astronomy

Oct. 26, 2012 Rise Set
Actual Time 7:30 AM CDT 6:40 PM CDT
Civil Twilight 7:06 AM CDT 7:04 PM CDT
Nautical Twilight 6:38 AM CDT 7:32 PM CDT
Astronomical Twilight 6:10 AM CDT 8:00 PM CDT
Moon 4:47 PM CDT (10/26) 4:39 AM CDT (10/26)
Length of Visible Light 11h 58m
Length of Day
11h 09m
Waxing Gibbous, 91% of the Moon is Illuminated
Oct 26
Waxing Gibbous
Oct 29
Full
Nov 6
Last Quarter
Nov 13
New
Nov 20
First Quarter

Hourly Weather History & Observations

Time (CDT) Temp. Dew Point Humidity Pressure Visibility Wind Dir Wind Speed Gust Speed Precip Events Conditions
12:10 AM 69.8 °F 69.8 °F 100% 29.93 in 3.0 mi Calm Calm - N/A   Clear
12:16 AM 69.8 °F 69.8 °F 100% 29.93 in 1.5 mi North 3.5 mph - N/A   Partly Cloudy
12:24 AM 69.8 °F 69.8 °F 100% 29.92 in 1.0 mi Calm Calm - N/A   Mist
12:27 AM 68.0 °F 68.0 °F 100% 29.92 in 2.5 mi Calm Calm - N/A   Clear
12:34 AM 68.0 °F 66.2 °F 94% 29.92 in 7.0 mi North 3.5 mph - N/A   Clear
12:53 AM 66.9 °F 66.9 °F 100% 29.93 in 2.0 mi Calm Calm - N/A   Clear
1:42 AM 68.0 °F 68.0 °F 100% 29.93 in 1.2 mi Calm Calm - N/A   Mostly Cloudy
1:53 AM 69.1 °F 68.0 °F 96% 29.93 in 2.0 mi Calm Calm - N/A   Partly Cloudy
2:01 AM 68.0 °F 66.2 °F 94% 29.93 in 8.0 mi Calm Calm - N/A   Clear
2:16 AM 68.0 °F 66.2 °F 94% 29.93 in 1.5 mi Calm Calm - N/A   Clear
2:38 AM 64.4 °F 64.4 °F 100% 29.92 in 0.5 mi Calm Calm - N/A Fog Fog
2:53 AM 64.9 °F 64.9 °F 100% 29.92 in 0.5 mi Calm Calm - N/A Fog Fog
2:59 AM 64.4 °F 64.4 °F 100% 29.92 in 2.5 mi Calm Calm - N/A   Mostly Cloudy
3:03 AM 64.4 °F 64.4 °F 100% 29.92 in 8.0 mi Calm Calm - N/A   Scattered Clouds
3:11 AM 66.2 °F 64.4 °F 94% 29.92 in 2.5 mi Calm Calm - N/A   Mostly Cloudy
3:17 AM 66.2 °F 64.4 °F 94% 29.92 in 1.8 mi Calm Calm - N/A   Mostly Cloudy
3:20 AM 66.2 °F 64.4 °F 94% 29.92 in 2.0 mi Calm Calm - N/A   Scattered Clouds
3:27 AM 64.4 °F 64.4 °F 100% 29.92 in 9.0 mi Calm Calm - N/A   Partly Cloudy
3:53 AM 64.0 °F 63.0 °F 96% 29.92 in 7.0 mi Calm Calm - N/A   Partly Cloudy
3:58 AM 64.4 °F 62.6 °F 94% 29.92 in 2.0 mi Calm Calm - N/A   Scattered Clouds
4:01 AM 64.4 °F 62.6 °F 94% 29.92 in 0.8 mi Calm Calm - N/A   Scattered Clouds
4:04 AM 62.6 °F 62.6 °F 100% 29.92 in 0.5 mi Calm Calm - N/A Fog Fog
4:27 AM 64.4 °F 64.4 °F 100% 29.92 in 2.0 mi Calm Calm - N/A   Overcast
4:34 AM 64.4 °F 64.4 °F 100% 29.92 in 10.0 mi Calm Calm - N/A   Mostly Cloudy
4:53 AM 66.0 °F 64.9 °F 96% 29.93 in 6.0 mi Calm Calm - N/A   Partly Cloudy
5:35 AM 69.8 °F 68.0 °F 94% 29.94 in 5.0 mi NW 5.8 mph - N/A   Scattered Clouds
5:38 AM 69.8 °F 69.8 °F 100% 29.94 in 2.5 mi NW 8.1 mph - N/A   Mostly Cloudy
5:46 AM 68.0 °F 68.0 °F 100% 29.94 in 1.2 mi NW 8.1 mph - N/A   Mostly Cloudy
5:53 AM 66.9 °F 66.9 °F 100% 29.95 in 3.0 mi NW 8.1 mph - N/A   Overcast
6:29 AM 64.4 °F 62.6 °F 94% 29.96 in 10.0 mi NNW 6.9 mph - N/A   Overcast
6:53 AM 64.0 °F 62.1 °F 93% 29.97 in 10.0 mi NNW 6.9 mph - N/A   Overcast
7:20 AM 62.6 °F 60.8 °F 94% 29.99 in 10.0 mi NNW 9.2 mph - N/A   Overcast
7:53 AM 62.1 °F 60.1 °F 93% 30.00 in 10.0 mi NNW 10.4 mph - N/A   Overcast
8:53 AM 63.0 °F 57.9 °F 84% 30.02 in 10.0 mi NNW 9.2 mph - N/A   Mostly Cloudy
9:23 AM 64.4 °F 57.2 °F 77% 30.03 in 10.0 mi North 11.5 mph - N/A   Overcast
10:49 AM 64.4 °F 55.4 °F 73% 30.06 in 10.0 mi NNW 11.5 mph - N/A   Overcast
10:53 AM 64.9 °F 55.9 °F 73% 30.06 in 10.0 mi North 11.5 mph - N/A   Overcast
11:53 AM 66.0 °F 55.0 °F 68% 30.06 in 10.0 mi North 15.0 mph 21.9 mph N/A   Overcast
12:53 PM 66.9 °F 55.0 °F 66% 30.05 in 10.0 mi North 13.8 mph 21.9 mph N/A   Overcast
1:53 PM 66.0 °F 54.0 °F 65% 30.05 in 10.0 mi North 15.0 mph - N/A   Overcast
2:53 PM 64.0 °F 53.1 °F 67% 30.03 in 10.0 mi NNW 13.8 mph 21.9 mph N/A   Overcast
3:53 PM 64.9 °F 53.1 °F 65% 30.03 in 10.0 mi North 18.4 mph 24.2 mph N/A   Overcast
4:04 PM 62.6 °F 51.8 °F 68% 30.03 in 10.0 mi NNW 11.5 mph - N/A   Overcast
4:53 PM 62.1 °F 52.0 °F 70% 30.04 in 10.0 mi NNW 16.1 mph 20.7 mph N/A   Mostly Cloudy
5:53 PM 59.0 °F 51.1 °F 75% 30.06 in 10.0 mi North 23.0 mph 28.8 mph N/A   Overcast
6:53 PM 57.0 °F 51.1 °F 81% 30.10 in 10.0 mi North 15.0 mph 21.9 mph N/A   Overcast
8:53 PM 55.9 °F 50.0 °F 80% 30.13 in 10.0 mi North 18.4 mph 28.8 mph N/A   Overcast
9:53 PM 55.9 °F 50.0 °F 80% 30.15 in 10.0 mi North 18.4 mph 24.2 mph N/A   Overcast
10:53 PM 55.9 °F 50.0 °F 80% 30.16 in 10.0 mi North 16.1 mph 21.9 mph N/A   Overcast
11:37 PM 55.4 °F 48.2 °F 77% 30.16 in 10.0 mi North 17.3 mph 26.5 mph N/A   Overcast
11:53 PM 55.0 °F 50.0 °F 83% 30.16 in 10.0 mi North 18.4 mph 25.3 mph N/A   Overcast